Date String (YYYY-MM-DD hh:mm:ss) UTC,Instrument flags,Ambient pressure (hPa),Sample flow (lpm),Bypass flow (lpm),Sample temperature (°C),Ambient temperature (°C),ASC tube jacket temperature (°C),LED temperature (°C),Box temperature (°C),Sample RH (%),Span deviation,Mass concentration (μg/m³),Mass concentration (μg/m³),Mass concentration (μg/m³)
DateTimeUTC,F1_M11,P_M11,Q1_M11,Q2_M11,T1_M11,T2_M11,T3_M11,T4_M11,T5_M11,U1_M11,ZSPAN_M11,X2_M11,X0_M11,X1_M11
2023-01-27 13:00:00,,0821.6,4.99,0.00,21.7,20.2,00.0,30.6,23.4,09.3,0000.0,0000.37,0000.66,0000.26
2023-01-27 13:01:00,,0821.6,4.99,0.00,21.7,20.2,00.0,30.6,23.4,09.1,0000.0,0000.35,0000.63,0000.26
2023-01-27 13:02:00,,0821.5,5.00,0.00,21.7,20.2,00.0,30.6,23.4,09.2,0000.0,0000.33,0000.58,0000.25
2023-01-27 13:03:00,,0821.5,4.99,0.00,21.7,20.2,00.0,30.6,23.4,09.1,0000.0,0000.33,0000.61,0000.25
2023-01-27 13:04:00,,0821.6,4.99,0.00,21.7,20.2,00.0,30.6,23.4,09.1,0000.0,0000.34,0000.62,0000.25
2023-01-27 13:05:00,,0821.6,5.00,0.00,21.7,20.2,00.0,30.6,23.4,09.1,0000.0,0000.33,0000.63,0000.25
2023-01-27 13:06:00,,0821.5,5.00,0.00,21.7,20.2,00.0,30.6,23.4,09.1,0000.0,0000.36,0000.72,0000.25
2023-01-27 13:07:00,,0821.5,5.00,0.00,21.7,20.1,00.0,30.6,23.4,09.1,0000.0,0000.35,0001.08,0000.24
2023-01-27 13:08:00,,0821.5,5.00,0.00,21.7,20.1,00.0,30.6,23.4,09.2,0000.0,0000.34,0001.96,0000.24
2023-01-27 13:09:00,,0821.6,5.02,0.00,21.7,20.1,00.0,30.6,23.4,09.2,0000.0,0000.34,0001.95,0000.25
2023-01-27 13:10:00,,0821.6,5.06,0.00,21.7,20.7,00.0,30.5,23.5,09.2,0000.0,0000.35,0001.96,0000.25
2023-01-27 13:11:00,,0821.7,5.01,0.00,21.8,21.9,00.0,30.5,23.8,09.1,0000.0,0000.35,0001.99,0000.25
2023-01-27 13:12:00,,0821.6,5.00,0.00,21.9,22.7,00.0,30.6,24.0,09.1,0000.0,0000.35,0002.00,0000.25
2023-01-27 13:13:00,,0821.5,4.99,0.00,22.0,22.4,00.0,30.6,24.1,09.1,0000.0,0000.39,0002.07,0000.25
2023-01-27 13:14:00,,0821.5,5.01,0.00,22.0,22.0,00.0,30.7,24.0,09.0,0000.0,0000.40,0002.16,0000.26
2023-01-27 13:15:00,,0821.5,4.98,0.00,22.0,21.5,00.0,30.7,23.9,08.9,0000.0,0000.40,0002.19,0000.26
2023-01-27 13:16:00,,0821.4,5.00,0.00,22.0,21.1,00.0,30.7,23.8,08.9,0000.0,0000.40,0002.18,0000.26
2023-01-27 13:17:00,,0821.4,5.00,0.00,22.0,20.8,00.0,30.7,23.7,08.9,0000.0,0000.37,0002.05,0000.26
2023-01-27 13:18:00,,0821.4,5.01,0.00,21.9,20.6,00.0,30.7,23.6,09.0,0000.0,0000.37,0001.73,0000.26
2023-01-27 13:19:00,,0821.4,4.99,0.00,21.9,20.3,00.0,30.7,23.5,09.0,0000.0,0000.38,0000.73,0000.27
2023-01-27 13:20:00,,0821.4,5.00,0.00,21.9,20.1,00.0,30.7,23.4,09.1,0000.0,0000.37,0000.70,0000.27
2023-01-27 13:21:00,,0821.4,4.99,0.00,21.8,19.8,00.0,30.7,23.3,09.0,0000.0,0000.41,0000.77,0000.28
2023-01-27 13:22:00,,0821.4,4.99,0.00,21.7,19.7,00.0,30.7,23.3,08.9,0000.0,0000.41,0000.78,0000.28
2023-01-27 13:23:00,,0821.4,4.99,0.00,21.7,19.6,00.0,30.7,23.3,09.1,0000.0,0000.42,0000.78,0000.29
2023-01-27 13:24:00,,0821.4,5.00,0.00,21.6,19.6,00.0,30.7,23.2,09.1,0000.0,0000.40,0000.73,0000.29
2023-01-27 13:25:00,,0821.3,4.98,0.00,21.6,19.5,00.0,30.6,23.2,09.1,0000.0,0000.40,0000.66,0000.30
2023-01-27 13:26:00,,0821.4,5.02,0.00,21.5,19.5,00.0,30.6,23.1,09.2,0000.0,0000.42,0000.65,0000.31
2023-01-27 13:27:00,,0821.3,5.02,0.00,21.5,19.6,00.0,30.6,23.1,09.2,0000.0,0000.42,0000.67,0000.31
2023-01-27 13:28:00,,0821.3,5.01,0.00,21.5,19.8,00.0,30.5,23.1,09.2,0000.0,0000.43,0000.66,0000.31
2023-01-27 13:29:00,,0821.3,5.00,0.00,21.6,20.9,00.0,30.5,23.4,09.2,0000.0,0000.45,0000.73,0000.31
2023-01-27 13:30:00,,0821.3,4.99,0.00,21.7,22.1,00.0,30.5,23.7,09.3,0000.0,0000.46,0000.81,0000.31
2023-01-27 13:31:00,,0821.4,5.00,0.00,21.8,22.0,00.0,30.6,23.8,09.3,0000.0,0000.46,0000.81,0000.31
2023-01-27 13:32:00,,0821.3,4.99,0.00,21.8,21.5,00.0,30.6,23.7,09.2,0000.0,0000.44,0000.87,0000.31
2023-01-27 13:33:00,,0821.3,5.01,0.00,21.8,21.2,00.0,30.6,23.6,09.2,0000.0,0000.42,0000.85,0000.31
2023-01-27 13:34:00,,0821.4,4.99,0.00,21.8,20.9,00.0,30.6,23.6,09.2,0000.0,0000.43,0000.87,0000.31
2023-01-27 13:35:00,,0821.3,5.00,0.00,21.8,20.6,00.0,30.6,23.5,09.3,0000.0,0000.44,0000.88,0000.31
2023-01-27 13:36:00,,0821.3,4.99,0.00,21.7,20.4,00.0,30.6,23.4,09.4,0000.0,0000.44,0000.93,0000.31
2023-01-27 13:37:00,,0821.3,5.00,0.00,21.7,20.3,00.0,30.6,23.4,09.5,0000.0,0000.44,0000.96,0000.30
2023-01-27 13:38:00,,0821.3,5.00,0.00,21.7,20.1,00.0,30.6,23.3,09.6,0000.0,0000.45,0001.00,0000.30
2023-01-27 13:39:00,,0821.2,5.00,0.00,21.6,19.9,00.0,30.6,23.2,09.7,0000.0,0000.45,0001.01,0000.30
2023-01-27 13:40:00,,0821.2,4.99,0.00,21.6,19.8,00.0,30.6,23.2,09.7,0000.0,0000.44,0000.99,0000.31
2023-01-27 13:41:00,,0821.2,5.00,0.00,21.6,19.8,00.0,30.6,23.2,09.7,0000.0,0000.45,0000.96,0000.31
2023-01-27 13:42:00,,0821.2,5.01,0.00,21.6,19.8,00.0,30.6,23.2,09.8,0000.0,0000.45,0000.97,0000.31
2023-01-27 13:43:00,,0821.2,5.00,0.00,21.6,20.4,00.0,30.5,23.3,09.7,0000.0,0000.45,0000.85,0000.31
2023-01-27 13:44:00,,0821.2,4.98,0.00,21.7,21.7,00.0,30.5,23.6,09.7,0000.0,0000.47,0000.88,0000.31
2023-01-27 13:45:00,,0821.3,5.01,0.00,21.8,22.6,00.0,30.5,23.9,09.5,0000.0,0000.48,0000.94,0000.31
2023-01-27 13:46:00,,0821.2,4.99,0.00,21.9,22.2,00.0,30.6,23.9,09.4,0000.0,0000.49,0001.04,0000.31
2023-01-27 13:47:00,,0821.2,5.00,0.00,21.9,21.7,00.0,30.6,23.7,09.5,0000.0,0000.50,0001.00,0000.31
2023-01-27 13:48:00,,0821.2,5.00,0.00,21.9,21.2,00.0,30.6,23.6,09.2,0000.0,0000.50,0000.97,0000.30
2023-01-27 13:49:00,,0821.2,5.00,0.00,21.8,20.9,00.0,30.7,23.6,09.2,0000.0,0000.49,0000.91,0000.31
2023-01-27 13:50:00,,0821.1,4.99,0.00,21.8,20.7,00.0,30.7,23.5,09.3,0000.0,0000.48,0000.90,0000.31
2023-01-27 13:51:00,,0821.1,5.01,0.00,21.8,20.6,00.0,30.7,23.5,09.2,0000.0,0000.49,0000.92,0000.30
2023-01-27 13:52:00,,0821.1,5.00,0.00,21.8,20.5,00.0,30.7,23.5,09.2,0000.0,0000.49,0001.04,0000.29
2023-01-27 13:53:00,,0821.1,5.00,0.00,21.8,20.4,00.0,30.7,23.4,09.2,0000.0,0000.49,0001.30,0000.29
2023-01-27 13:54:00,,0821.2,5.00,0.00,21.8,20.3,00.0,30.7,23.4,09.3,0000.0,0000.50,0001.31,0000.29
2023-01-27 13:55:00,,0821.1,4.99,0.00,21.7,20.2,00.0,30.7,23.4,09.3,0000.0,0000.49,0001.30,0000.29
2023-01-27 13:56:00,,0821.1,4.99,0.00,21.7,20.2,00.0,30.7,23.4,09.3,0000.0,0000.47,0001.28,0000.29
2023-01-27 13:57:00,,0821.2,5.01,0.00,21.7,20.1,00.0,30.6,23.3,09.2,0000.0,0000.47,0001.41,0000.30
2023-01-27 13:58:00,,0821.2,5.02,0.00,21.7,20.1,00.0,30.6,23.3,09.2,0000.0,0000.47,0001.41,0000.29
2023-01-27 13:59:00,,0821.2,4.99,0.00,21.6,20.2,00.0,30.6,23.3,09.2,0000.0,0000.46,0001.38,0000.29
